Location: Gro�sch�nbrunn
(49.5760°N, 11.8868°E)
Time: 01:22:06
(UTC+00:00)

CZ-2C R/B - Pass Details

Date: 18 September 2020
Orbit: 704 x 908 km, 98.1° (Epoch: 30 October)

Event Time Altitude Azimuth Distance (km) Brightness Sun altitude
Rises 17:56:43 0° 164° (SSE) 3,249 6.0 -7.0°
Reaches altitude 10° 17:58:58 10° 164° (SSE) 2,355 5.3 -7.3°
Maximum altitude 18:04:12 89° 256° (WSW) 834 3.2 -8.2°
Drops below altitude 10° 18:09:48 10° 346° (NNW) 2,506 6.0 -9.1°
Sets 18:12:15 0° 347° (NNW) 3,473 6.8 -9.5°
